Theta_e
296 295 295 295 295 295 294 294 293 294 293 293 293 292 291 291 291 290 289 289 287 287 287 287 287 286 287 285 285 286 286 285 284 285 285 285 285 286 285 287 288 288 288 287 287 288 286 287 287 287 287 288 288 288 289 289 289 291 292 293 293 294 294 292 290 289 291 293 293 293 294 294 293 294 293 294 295 296 296 297 297 297 298 299 299
294 294 294 294 293 292 292 292 292 292 291 291 290 289 288 288 287 287 287 284 286 286 287 285 285 286 286 286 285 285 286 287 284 284 285 285 284 285 285 285 285 285 285 285 284 284 285 287 287 286 285 287 288 287 287 287 288 290 290 291 291 291 293 291 290 289 288 290 290 290 291 293 291 294 292 291 293 294 293 294 296 297 297 297 297
293 293 293 292 291 290 290 289 289 288 288 288 287 287 286 286 285 287 286 285 284 285 285 285 285 285 285 285 285 285 285 284 283 283 284 284 284 284 283 284 284 285 285 285 285 284 284 284 286 285 285 285 286 286 285 285 285 287 288 289 290 291 292 293 291 288 288 288 290 290 290 290 290 291 291 291 292 292 291 292 293 294 295 295 295
292 292 291 289 289 288 288 287 287 287 287 286 286 285 285 285 285 285 284 285 285 284 285 285 285 285 285 285 285 285 285 284 284 282 284 284 284 284 283 283 283 284 284 284 284 284 284 284 285 285 284 284 285 285 284 283 284 284 285 286 287 288 289 290 292 290 289 288 289 289 289 289 290 291 291 290 291 290 291 292 292 292 292 292 293
290 289 289 288 287 287 286 286 286 286 286 285 285 285 285 285 284 284 284 285 284 284 284 284 284 285 285 285 285 285 284 284 284 284 283 282 283 283 283 283 283 283 283 283 285 284 284 284 285 284 284 284 284 284 284 284 284 284 284 285 285 286 286 288 289 289 289 287 288 290 290 289 290 290 289 289 289 289 289 289 290 291 291 291 291
288 288 288 287 286 286 286 285 285 285 285 285 284 284 284 284 284 283 283 284 283 283 284 284 284 284 284 284 282 284 283 283 283 284 284 283 282 283 282 282 282 283 283 284 284 283 283 284 284 284 284 283 283 284 284 284 284 284 284 285 285 285 285 285 287 287 288 288 288 287 289 289 288 288 289 287 287 288 289 290 290 290 289 289 290
287 287 287 286 286 285 285 285 285 285 284 284 284 284 284 283 284 283 282 283 284 284 283 283 283 283 282 283 284 284 284 283 282 282 283 282 283 283 283 283 283 283 283 284 284 283 283 283 283 283 283 283 283 284 284 284 284 284 284 284 285 284 285 285 285 286 286 286 287 288 288 288 288 286 288 289 288 288 287 287 288 290 289 288 288
287 286 286 286 286 285 284 284 284 284 284 284 284 283 283 283 283 282 282 283 283 283 283 283 282 282 282 282 282 281 282 282 282 282 282 282 283 283 283 283 283 283 283 283 283 283 283 283 283 283 284 283 283 283 283 283 284 283 284 283 284 284 284 284 285 285 285 285 286 286 286 287 287 288 288 287 286 286 286 286 286 287 288 290 290
286 286 286 286 285 284 284 284 284 283 283 283 283 283 282 282 282 282 282 283 283 282 282 282 282 282 282 282 282 282 283 283 282 283 284 284 282 283 283 283 282 282 282 282 283 283 282 282 283 283 283 284 285 286 286 286 284 283 284 284 283 283 283 283 283 283 284 285 285 285 285 285 285 285 284 284 284 284 286 287 286 287 288 288 290
286 286 285 285 284 284 284 283 283 283 282 282 282 282 281 281 281 282 282 282 281 281 281 281 281 281 281 282 281 282 282 282 284 289 289 286 284 283 282 282 282 282 282 282 282 282 282 282 282 283 284 284 284 285 287 287 287 286 285 284 284 283 283 283 283 283 283 283 283 284 283 283 284 284 284 285 286 287 286 286 286 287 288 288 289
286 285 285 284 284 283 283 282 282 282 281 281 281 281 281 281 281 281 281 280 280 280 280 281 280 280 281 281 281 281 282 282 287 289 289 290 285 282 282 282 282 281 281 281 281 281 281 281 280 281 282 282 282 285 286 287 287 287 287 287 287 285 283 282 283 283 283 283 284 284 283 283 284 285 285 286 286 286 286 286 286 286 285 285 283
285 285 284 283 283 282 282 281 281 281 281 280 280 279 280 280 280 279 280 279 279 279 280 280 280 280 280 280 280 281 281 285 288 288 288 288 288 284 281 281 281 280 280 280 280 280 280 280 280 280 280 281 281 281 283 284 285 286 286 286 287 287 288 285 283 283 283 283 283 283 284 283 284 286 286 286 286 286 286 286 286 285 284 284 285
284 284 283 283 282 282 281 281 280 280 279 279 279 279 278 278 278 278 278 278 278 279 279 279 279 279 279 279 279 280 279 284 287 287 287 288 288 286 282 280 280 279 279 279 279 279 279 279 279 280 280 281 281 281 281 281 283 285 285 286 286 286 287 287 287 286 285 284 283 283 284 284 284 284 286 286 287 285 286 285 286 286 285 284 285
284 283 282 282 281 281 280 280 280 279 279 278 278 278 278 277 276 276 276 278 278 278 278 278 278 278 279 278 279 279 279 283 286 286 286 287 287 285 279 279 279 278 278 278 278 278 278 278 279 279 279 279 279 280 281 282 282 282 282 282 282 283 285 285 286 286 286 285 284 283 284 285 284 285 286 288 286 285 285 285 286 285 285 285 286
283 282 281 281 280 280 280 279 279 278 278 277 277 277 277 276 277 276 277 277 277 277 276 276 278 277 278 278 278 278 279 284 285 285 286 286 286 283 279 279 278 277 278 278 278 278 278 279 279 279 279 279 280 281 281 281 281 281 281 281 281 282 282 283 283 284 284 284 284 284 285 286 286 286 286 287 286 286 285 284 285 284 285 286 286
282 281 280 280 280 280 279 279 278 278 277 277 276 276 276 276 276 276 276 276 276 276 276 276 276 276 276 275 276 277 278 282 283 284 285 285 284 279 278 278 277 277 277 277 277 278 278 278 278 278 278 278 280 283 283 282 282 281 281 281 282 282 282 284 285 286 285 285 285 285 285 285 287 286 286 286 286 286 286 286 285 284 284 283 283
281 280 280 280 279 279 279 278 277 276 276 276 275 275 275 275 275 275 275 275 275 276 277 276 275 275 275 275 276 278 277 280 282 283 284 284 282 278 277 277 277 277 277 277 277 278 278 278 278 278 278 278 281 283 284 284 281 281 280 280 281 281 281 283 285 286 286 286 286 287 288 288 288 288 288 288 287 286 284 282 281 282 281 280 281
280 280 279 279 279 278 278 277 276 276 275 275 275 275 274 273 274 274 274 274 275 277 277 277 276 274 274 276 277 276 274 277 281 282 283 283 282 277 276 276 275 276 276 277 277 277 278 279 279 278 278 278 282 283 284 283 280 280 280 280 280 280 281 282 282 283 285 286 286 286 286 286 286 287 287 288 288 286 283 280 282 283 280 281 280
280 279 278 278 278 277 277 276 276 275 274 274 273 273 272 272 273 273 274 274 276 276 276 275 274 274 275 275 276 273 271 275 279 281 282 282 281 276 275 274 274 275 276 277 277 277 277 278 279 279 279 280 283 283 284 283 281 280 280 279 279 279 280 281 281 282 282 282 282 283 282 283 283 284 284 286 287 286 285 284 284 282 280 281 281
279 278 278 277 276 276 276 275 274 274 273 272 272 273 272 272 273 273 274 274 274 274 273 273 272 273 272 270 271 271 272 272 276 280 281 282 282 278 274 275 275 276 277 277 276 276 277 276 277 279 281 282 283 283 283 284 281 281 280 279 278 278 281 281 282 282 281 281 281 281 281 282 282 283 283 283 284 284 285 284 284 283 282 281 282
278 277 277 276 275 275 274 274 273 273 273 273 273 273 272 273 274 274 273 273 272 271 271 271 270 269 268 268 269 270 271 272 273 279 280 281 281 280 276 277 277 277 276 276 276 276 275 275 276 279 281 282 283 283 283 283 283 280 280 279 279 281 282 280 281 281 281 281 281 281 281 282 282 282 283 283 284 284 284 285 285 285 284 282 282
277 276 275 274 274 274 273 273 272 272 272 272 272 272 272 272 273 272 271 270 270 270 269 268 268 268 269 270 269 269 270 274 271 276 279 280 280 280 278 277 278 277 276 275 276 275 275 275 276 278 281 282 282 282 282 282 282 279 279 282 282 282 280 280 280 280 280 280 280 281 281 281 281 281 282 283 283 284 284 285 285 285 285 285 283
275 275 274 273 273 273 272 272 271 271 271 271 271 271 272 271 271 271 271 269 268 267 267 267 267 267 268 268 269 269 269 270 276 274 277 279 279 279 279 278 279 277 276 274 275 275 276 276 277 279 281 281 281 281 281 281 279 278 281 281 281 281 280 278 279 279 280 279 279 279 279 279 280 281 282 282 282 283 284 284 283 281 280 281 281
274 273 273 273 272 272 271 270 270 270 270 270 271 272 271 270 270 270 270 268 266 266 266 266 266 267 266 267 267 269 269 270 273 275 275 277 278 279 279 279 279 277 276 275 275 275 275 276 278 280 280 279 279 279 279 278 277 279 280 280 280 279 277 278 279 278 277 277 278 278 279 280 281 281 281 282 282 281 279 278 277 276 275 275 276
273 272 272 272 271 270 270 270 270 268 269 271 271 271 271 270 269 268 267 266 266 265 265 265 265 265 266 267 267 268 269 268 268 273 276 276 277 278 278 278 278 278 275 275 276 276 278 280 279 279 278 278 278 277 276 276 278 278 279 279 277 275 276 278 276 274 274 276 277 278 278 279 280 281 282 282 280 278 278 278 276 274 272 272 273
272 271 271 271 271 271 271 271 270 270 270 270 270 270 269 269 268 266 264 263 263 263 265 265 264 264 265 265 266 267 267 267 267 270 274 275 276 277 277 277 277 277 277 276 278 279 279 278 277 277 276 275 273 272 272 273 277 277 277 276 275 276 277 275 273 273 274 277 277 277 277 279 279 280 280 279 277 278 278 277 275 275 274 274 274
272 272 271 271 271 271 271 270 270 270 269 269 268 268 267 266 266 266 263 261 262 263 264 265 264 265 264 264 265 266 265 266 269 271 273 274 275 275 275 275 276 277 276 276 276 276 275 274 273 275 274 275 275 275 274 274 273 273 273 274 276 276 274 273 273 274 276 275 275 276 277 278 279 279 280 280 279 279 277 274 274 274 273 272 271
272 271 270 270 270 270 270 270 269 268 268 267 267 266 266 265 262 263 262 262 261 263 263 263 264 264 263 263 264 265 266 267 269 272 273 274 274 275 275 275 275 275 274 275 275 274 272 272 271 270 270 270 270 270 270 271 271 272 273 274 273 273 273 275 276 275 274 274 275 276 277 277 277 278 280 279 278 278 276 273 273 273 271 270 270
271 270 270 270 269 270 269 269 267 267 266 265 265 265 264 262 262 261 262 260 261 262 261 263 264 262 262 263 264 266 268 268 270 276 275 276 275 274 274 274 275 274 275 277 274 271 269 267 267 267 268 268 268 269 270 270 270 270 270 270 270 270 271 272 271 271 272 273 274 274 275 276 277 279 279 279 278 277 273 272 272 272 270 270 269
270 269 269 269 269 268 267 266 265 265 264 264 263 263 269 271 267 261 263 272 275 276 274 265 265 265 265 264 265 268 268 271 275 276 276 276 277 277 276 277 277 275 275 276 272 267 266 266 266 266 267 267 267 268 268 268 267 267 267 268 267 267 268 269 270 270 271 272 273 274 275 276 277 278 278 278 278 278 274 273 271 271 270 269 268
268 267 267 267 267 266 266 265 264 263 263 262 262 263 262 265 274 274 273 273 274 275 274 274 274 274 271 266 268 274 274 275 275 275 275 276 276 276 276 276 275 275 275 271 266 265 265 265 266 266 267 266 266 266 266 266 266 265 265 265 265 266 267 268 268 270 270 271 272 274 275 276 276 277 277 278 277 277 274 271 270 270 270 269 267
268 267 267 267 267 266 265 264 263 263 262 261 262 263 263 262 262 270 271 271 273 274 273 272 272 273 273 273 270 268 272 274 275 275 275 275 275 275 275 274 273 274 273 271 265 264 265 265 265 265 265 265 265 265 265 264 264 264 264 264 264 266 266 266 268 269 269 270 272 273 274 275 276 277 277 277 276 275 272 270 269 269 268 268 267
267 267 266 266 266 265 264 263 262 262 261 261 261 262 262 263 262 259 263 270 271 271 271 271 271 271 272 272 273 272 272 273 274 274 274 274 274 273 273 271 272 272 270 264 263 262 263 264 264 264 264 263 263 263 263 263 263 263 263 263 264 265 266 267 268 268 270 271 272 273 274 275 276 276 276 276 275 272 271 269 269 268 268 266 265
266 266 265 265 264 264 263 263 262 262 262 262 262 261 261 260 258 259 257 257 259 264 268 269 269 270 271 271 271 272 272 273 273 273 273 273 273 272 270 267 270 270 268 262 262 261 262 263 263 263 262 263 263 263 263 262 262 262 263 263 264 265 266 267 267 268 269 271 272 272 273 274 275 275 275 274 273 271 270 269 268 267 266 265 264
263 264 265 264 264 263 263 263 262 262 263 262 262 261 260 259 259 257 256 257 256 256 255 258 264 269 267 267 269 271 271 272 272 272 272 272 271 270 267 262 261 261 262 262 262 261 262 262 262 262 261 261 262 262 262 262 262 262 263 263 263 264 264 265 265 267 268 269 270 271 272 273 274 274 273 272 271 270 269 268 268 267 266 265 264
263 263 264 264 263 263 262 262 262 262 262 261 261 260 260 260 260 257 258 258 256 255 256 255 256 264 267 267 268 269 270 271 271 270 270 270 270 268 259 259 259 260 260 261 261 261 262 261 261 261 261 261 261 261 262 262 262 262 263 263 263 263 263 264 265 265 266 267 268 270 272 272 273 273 272 271 270 269 269 268 268 267 266 264 264
262 263 263 263 262 262 261 261 261 262 263 261 261 259 259 259 258 257 256 256 256 256 254 253 254 255 262 261 264 266 269 269 269 268 268 268 268 262 258 259 259 259 260 260 260 261 260 260 261 260 261 261 261 261 261 262 262 262 263 262 262 262 263 263 264 265 264 265 267 269 270 271 271 272 271 270 270 269 268 268 267 266 265 265 265
262 262 262 261 261 261 260 260 261 263 262 261 260 260 258 257 258 258 257 255 257 256 254 253 260 255 255 256 263 261 262 266 265 264 264 263 261 259 259 259 259 259 259 259 260 260 260 260 260 260 260 260 260 260 261 261 261 261 261 261 262 262 264 264 264 263 264 264 266 268 269 270 271 271 270 269 269 268 267 267 266 265 265 265 264
260 263 263 263 262 261 261 261 261 261 261 261 260 260 260 259 259 257 255 254 255 254 255 253 253 254 254 255 255 261 262 258 257 257 258 257 257 257 256 257 257 258 259 259 259 260 259 259 260 260 260 260 260 260 260 260 261 261 261 261 261 262 262 262 262 262 263 264 265 267 268 269 270 270 270 269 269 268 267 266 266 265 264 263 264
260 261 263 263 262 262 261 261 261 261 261 260 260 260 259 259 258 257 254 253 253 254 253 254 254 254 255 256 257 259 259 257 256 255 255 256 256 256 256 256 257 258 258 258 259 259 259 259 259 259 259 260 260 260 261 261 261 261 261 261 261 262 262 262 262 262 263 264 264 266 267 268 269 270 269 269 268 267 266 266 265 265 265 264 263
260 261 262 263 262 262 261 261 261 261 261 261 260 259 257 257 257 256 254 254 254 255 255 254 253 253 255 261 264 264 257 255 255 255 255 255 256 255 255 255 256 257 258 259 259 259 259 259 259 259 259 260 260 261 261 261 261 262 262 262 262 262 262 262 262 263 263 264 264 265 266 268 269 269 268 268 269 267 266 266 265 265 264 263 262
261 261 262 262 263 262 261 261 261 261 260 260 259 258 258 259 258 256 255 255 255 255 253 253 253 253 259 263 263 264 257 254 255 255 254 254 254 254 256 256 255 256 257 257 258 259 259 259 259 259 259 259 260 260 261 261 261 262 262 262 262 262 262 263 263 263 263 264 264 265 266 268 269 269 269 269 266 266 265 265 264 263 262 262 262
261 262 262 262 262 261 261 261 261 260 260 260 259 259 259 257 257 256 255 255 255 255 254 253 253 254 256 262 261 262 256 252 257 255 254 254 254 255 255 255 255 255 256 256 257 258 259 259 258 259 259 259 260 260 260 261 261 262 262 262 262 262 262 263 263 263 263 264 264 266 267 268 268 268 267 266 266 265 265 264 263 262 261 262 262
261 262 262 261 261 261 261 260 260 260 260 259 258 257 258 257 256 255 254 254 254 254 254 253 253 254 254 256 258 255 252 252 251 251 252 254 254 254 254 254 255 255 256 256 256 256 257 257 258 258 259 259 260 260 260 261 262 262 262 262 262 262 262 263 263 263 263 264 265 265 266 267 268 267 266 266 265 264 263 262 262 261 261 261 261
261 260 260 260 260 260 260 260 259 260 259 259 259 258 258 256 254 254 255 254 255 255 253 253 254 254 254 253 252 252 251 251 254 254 253 253 253 253 253 253 254 255 255 255 255 256 256 256 257 257 258 259 259 260 260 261 262 262 262 262 262 262 262 262 263 263 264 264 264 265 266 267 267 266 266 265 265 264 263 262 262 262 261 261 261
261 260 260 260 260 260 260 260 260 259 259 259 258 257 255 254 254 255 256 255 254 254 253 253 253 253 253 252 252 253 252 251 251 252 253 252 252 252 252 252 253 254 254 254 255 255 256 256 256 257 257 258 259 259 260 260 261 262 262 262 262 262 263 263 263 264 264 264 264 264 265 266 266 266 265 265 264 264 262 262 262 262 261 261 261
260 260 260 260 260 259 260 259 258 258 258 258 257 256 254 255 255 255 255 255 254 254 253 252 251 251 251 251 252 251 252 252 252 252 251 252 251 252 251 251 253 253 253 254 254 254 254 255 255 256 256 257 258 259 259 260 261 261 262 262 262 262 263 263 263 263 264 264 264 264 265 265 265 265 265 264 263 262 262 262 262 261 261 261 261
260 260 260 260 260 259 259 259 258 259 258 258 257 256 256 256 256 255 253 253 254 253 252 252 250 250 252 251 252 252 252 252 252 253 252 252 250 251 251 250 252 252 253 253 253 254 254 254 254 255 255 256 257 258 258 259 260 261 262 262 263 263 263 263 263 263 263 263 264 264 265 265 265 265 264 264 263 262 262 261 262 261 261 261 261
259 259 259 260 259 259 259 259 258 259 259 258 257 257 257 257 256 255 255 253 253 252 251 251 250 250 250 251 251 251 251 252 251 250 250 250 250 250 251 251 252 253 252 252 253 253 253 253 254 255 255 255 256 256 257 258 259 260 262 263 263 264 263 263 263 263 263 263 263 264 264 264 264 264 264 263 263 263 262 261 261 261 261 261 261
259 259 259 259 259 259 259 259 259 259 258 258 257 257 257 256 255 255 254 253 252 251 250 251 251 251 250 251 251 251 250 251 251 251 250 250 250 249 250 251 251 251 251 251 252 252 252 252 253 253 254 254 255 256 256 257 258 260 261 263 264 264 264 263 263 263 263 262 261 262 263 263 263 263 262 262 262 261 261 261 261 261 260 260 260
259 259 259 259 259 259 259 258 258 258 257 257 257 257 256 256 255 255 254 254 254 253 252 250 250 249 250 250 251 250 251 250 251 251 250 250 249 249 250 250 251 250 250 251 251 252 252 252 252 253 254 255 255 255 256 256 257 259 261 263 264 264 264 263 262 263 263 262 260 261 262 262 262 262 262 262 262 261 261 261 261 260 260 260 260
Wind_Speed
6 6 6 7 8 8 7 7 7 7 7 7 8 6 5 5 5 5 4 5 4 6 5 5 4 5 4 4 4 4 4 4 3 4 4 4 3 3 2 2 2 1 1 2 2 2 3 4 4 5 4 5 5 5 5 5 4 5 5 5 6 5 7 8 11 16 18 10 7 11 12 9 14 11 9 11 10 9 11 10 8 9 11 11 11
7 6 6 7 8 8 7 6 7 7 8 7 7 6 5 5 4 5 6 4 4 5 5 4 4 4 5 4 4 4 4 4 3 4 4 4 4 2 3 3 3 4 3 4 4 4 3 5 6 5 4 5 6 6 5 5 4 5 5 5 6 6 5 8 10 13 19 18 15 8 10 6 14 14 10 9 13 12 12 11 9 10 11 11 11
6 7 7 8 8 7 7 7 7 8 8 6 7 6 5 5 4 6 6 5 4 4 4 4 4 4 5 4 4 4 4 4 3 4 3 3 3 3 2 3 4 4 5 5 5 4 4 4 6 5 4 6 6 6 5 5 4 5 7 5 7 7 7 8 10 13 15 18 16 16 14 9 9 15 12 9 10 11 14 14 12 11 11 10 10
7 8 8 9 8 8 8 7 8 7 8 6 7 5 5 5 4 6 4 5 6 4 4 4 5 5 5 5 5 4 4 4 4 3 3 2 2 3 3 3 3 3 4 5 5 4 5 6 7 5 5 6 7 7 6 5 5 5 6 6 7 9 8 7 9 11 11 16 17 16 14 13 15 12 11 10 12 12 11 13 11 12 12 10 10
8 8 9 10 8 9 8 7 8 7 7 6 6 6 6 6 4 4 5 6 5 6 6 4 5 6 6 5 5 5 4 3 4 4 4 3 3 3 4 3 4 3 3 4 5 4 5 5 7 6 5 7 9 7 8 9 7 6 7 8 7 8 7 7 8 9 12 16 16 14 14 12 15 15 11 11 13 11 9 11 12 13 12 11 9
7 9 8 10 9 9 8 7 8 8 7 7 6 6 5 5 5 4 4 6 5 5 5 5 6 5 5 4 4 4 4 4 3 3 4 4 3 3 3 3 4 4 5 5 4 4 5 6 7 6 6 7 9 9 8 9 9 9 8 9 9 8 9 9 8 9 11 13 14 15 15 15 18 14 13 7 10 14 13 14 14 12 10 11 10
8 8 8 9 9 8 7 7 7 7 7 7 6 5 5 4 5 5 4 5 6 6 5 6 5 4 4 4 4 4 4 4 4 4 4 4 4 4 4 4 5 4 4 5 5 5 5 6 6 6 7 7 8 10 10 10 9 10 9 9 11 9 10 9 8 9 10 13 12 12 15 14 13 19 15 12 13 11 13 13 15 12 10 9 12
8 8 8 8 8 8 7 6 7 7 6 6 6 5 5 5 5 4 4 7 6 6 6 5 4 4 4 4 4 4 4 4 4 4 4 4 4 5 4 4 5 5 5 6 5 5 6 6 6 7 7 8 8 9 8 10 10 12 9 6 9 10 11 10 10 9 10 11 12 14 12 12 13 10 11 12 12 10 7 9 13 14 14 13 13
9 8 8 9 8 7 7 6 6 6 6 6 6 6 5 5 4 5 6 6 6 5 5 5 5 5 4 4 4 4 4 4 4 4 5 5 4 4 4 4 5 6 6 6 6 6 6 5 5 6 8 11 14 14 13 12 11 12 13 9 9 9 11 11 11 10 10 11 14 11 12 14 14 14 15 13 12 13 12 11 14 13 13 14 15
10 9 9 9 8 7 7 6 6 6 7 6 5 5 5 4 5 6 6 6 6 5 5 4 4 4 5 5 5 5 4 3 6 11 8 6 5 4 5 5 5 5 6 7 6 6 6 6 5 9 12 14 14 15 15 16 15 12 12 12 12 11 12 12 12 10 10 12 13 13 15 15 15 14 14 14 12 12 13 13 15 14 13 14 13
8 9 10 7 8 7 7 7 7 7 5 5 5 5 5 5 6 6 6 6 6 5 4 5 5 4 4 4 4 4 4 4 11 10 11 11 5 4 4 5 4 5 5 6 7 8 7 5 5 7 9 10 10 12 12 15 17 18 19 18 15 13 13 14 14 13 14 13 13 14 14 16 17 15 14 16 14 13 12 11 13 13 13 16 19
10 9 9 8 7 8 7 7 7 6 5 5 5 5 5 6 6 6 6 6 5 4 6 5 5 5 5 4 4 4 4 8 12 12 12 13 10 5 4 4 4 4 5 5 6 6 8 8 5 4 5 7 8 9 10 13 17 18 19 19 19 19 17 14 14 14 13 14 15 14 14 16 16 15 13 11 12 12 11 12 13 13 15 14 13
9 9 7 8 7 7 7 8 7 6 5 5 5 6 6 6 6 5 5 3 4 6 5 5 5 5 4 4 5 4 4 9 13 13 14 14 14 9 5 4 5 5 5 5 6 6 7 9 8 5 3 9 10 9 11 12 17 19 18 18 17 18 18 21 20 16 14 15 16 18 15 15 16 14 13 15 14 18 17 14 14 15 14 15 14
9 9 8 7 7 7 7 7 8 6 5 6 6 6 6 6 4 4 3 4 5 5 5 5 4 4 4 4 4 4 4 8 13 14 14 14 14 11 4 5 4 5 5 6 6 6 7 8 9 10 7 5 6 8 11 13 14 14 14 13 13 14 17 19 18 20 17 14 15 17 17 16 17 16 16 16 17 16 16 17 13 13 15 17 17
8 9 9 7 7 7 7 7 8 6 6 6 6 6 5 4 5 4 4 4 5 4 3 3 3 3 4 4 4 5 5 11 13 14 14 14 15 10 5 5 4 4 5 5 5 6 7 7 8 9 10 10 9 13 13 14 15 15 15 16 15 14 14 13 12 13 13 13 14 16 17 16 16 17 17 17 17 17 15 18 20 20 19 18 18
9 8 8 8 8 7 8 8 7 7 7 6 6 6 5 5 5 3 4 4 4 3 3 2 2 3 3 3 3 5 5 11 13 13 14 15 14 6 6 6 6 6 5 5 5 5 5 7 9 11 12 12 14 22 19 16 14 16 17 16 17 15 14 13 22 23 19 17 15 16 16 20 23 22 20 18 16 15 15 14 14 15 15 16 16
9 9 8 8 7 7 7 8 8 7 5 6 6 5 5 4 4 2 4 3 3 3 2 2 2 3 4 3 3 5 5 10 13 14 14 16 10 6 6 6 7 7 6 5 5 5 5 7 9 11 12 11 18 25 24 22 14 15 16 17 16 16 16 14 20 27 30 32 33 33 31 33 30 33 31 32 22 17 13 13 14 12 15 15 15
8 9 8 7 7 7 6 7 8 7 6 7 6 4 3 3 3 2 4 3 3 3 3 3 3 3 3 4 4 4 5 8 13 14 15 16 12 7 7 7 7 7 8 6 5 6 6 10 10 9 11 13 23 27 27 21 14 14 14 16 18 16 15 13 15 15 22 26 25 27 28 27 30 29 28 27 27 21 14 16 16 15 15 15 16
9 9 8 7 7 7 7 7 7 7 7 6 5 5 4 3 2 3 3 3 3 3 3 3 2 3 3 4 6 4 4 6 12 14 15 16 11 5 7 7 8 8 9 11 9 6 5 7 13 15 16 20 27 26 28 22 15 13 14 15 15 15 15 15 15 16 15 17 18 18 18 18 16 14 15 25 25 22 15 15 14 14 15 14 15
7 7 8 7 6 6 6 7 7 7 7 6 5 4 3 3 4 3 4 4 3 3 3 2 2 3 4 3 3 3 3 5 7 14 13 14 15 8 5 7 10 11 10 9 11 12 8 6 9 17 23 25 26 28 27 28 18 14 13 13 15 16 13 15 17 17 17 17 17 18 18 16 16 13 12 12 13 13 14 12 11 12 13 15 15
8 8 8 8 7 7 6 6 8 6 5 6 5 4 3 4 3 4 4 3 4 4 4 3 3 2 2 2 2 4 3 5 6 13 13 14 16 14 5 8 9 9 9 10 9 12 12 12 10 19 26 27 27 28 28 28 25 17 12 12 13 19 23 15 16 20 16 17 15 17 14 13 12 12 11 11 11 10 10 11 11 11 11 14 17
8 8 8 8 7 7 7 6 5 6 5 5 6 5 4 4 4 3 3 4 5 5 3 2 0 1 1 1 1 3 4 6 4 9 13 14 15 17 9 8 11 10 11 9 9 9 9 11 11 20 30 29 29 29 29 27 28 16 15 24 29 29 20 14 14 12 12 13 13 13 13 13 12 11 11 11 11 10 10 10 9 9 9 10 12
8 8 8 8 7 7 6 6 6 5 5 5 6 6 4 4 4 4 4 5 5 3 1 0 2 1 0 1 1 1 2 3 10 6 11 14 15 14 16 12 17 10 8 11 11 11 9 10 12 24 28 29 28 29 27 29 21 16 28 28 28 31 24 13 13 11 10 12 13 13 13 12 12 13 12 12 11 10 10 9 10 10 10 10 10
8 9 8 8 8 7 6 6 5 4 4 5 5 6 5 4 3 4 5 5 3 1 1 2 2 0 2 2 2 2 2 2 6 10 10 14 14 16 16 17 17 11 9 9 10 12 13 13 16 28 28 27 28 27 27 24 19 26 27 29 29 26 15 13 10 11 14 13 13 12 12 13 14 13 12 13 13 11 10 10 10 8 7 8 8
9 9 9 8 7 6 6 5 5 4 3 4 6 5 5 4 6 5 4 2 1 1 1 1 3 3 3 4 4 3 3 3 3 7 13 14 15 16 17 18 18 18 11 7 10 10 16 24 25 25 25 26 27 26 21 21 26 26 27 28 26 13 12 9 11 13 13 13 11 12 12 13 13 14 13 14 13 11 10 9 7 6 5 5 6
10 9 8 7 7 7 8 6 5 6 5 4 4 4 6 5 5 4 2 1 1 1 1 2 3 3 3 3 4 4 4 2 3 4 6 9 10 14 17 17 17 18 16 13 18 21 21 21 23 23 21 19 16 13 12 15 25 27 26 23 13 12 9 11 12 13 12 11 12 12 12 12 11 13 14 12 9 10 10 10 10 10 6 5 7
11 9 9 8 7 7 8 5 5 4 4 4 4 5 5 5 4 3 3 2 1 1 1 2 2 3 3 3 3 4 4 4 4 4 5 5 6 7 8 8 13 13 10 9 11 10 14 15 14 19 16 22 21 19 17 18 14 12 12 11 9 8 12 11 12 12 12 13 14 14 11 13 12 12 12 11 10 10 8 8 8 9 6 4 3
11 10 9 8 7 7 7 6 6 4 4 5 6 5 3 4 4 5 4 3 2 1 2 3 3 3 3 3 4 4 4 4 5 7 7 7 7 6 7 7 8 7 8 9 10 11 10 12 14 9 9 9 9 8 9 9 8 9 8 10 12 13 13 16 15 10 10 11 12 12 13 14 13 12 11 9 10 10 8 6 7 8 3 2 3
9 9 8 8 7 7 6 5 5 6 6 5 3 3 5 4 5 3 4 4 3 4 4 4 4 2 3 3 3 4 4 5 6 11 10 13 12 10 8 8 8 7 11 18 12 8 7 7 9 10 10 12 13 13 12 13 14 12 13 11 12 12 12 10 11 11 12 10 12 13 13 14 13 13 12 12 10 10 6 6 6 5 3 1 4
9 9 7 7 7 7 7 6 5 5 6 6 5 1 3 6 5 4 2 2 4 5 6 3 3 2 2 3 1 2 4 5 12 15 15 15 16 16 15 17 16 13 16 18 11 7 8 9 9 9 10 11 12 13 14 13 13 15 13 16 15 14 13 12 12 13 14 14 14 13 13 13 12 13 13 12 11 10 6 4 5 2 3 3 3
8 8 8 7 7 8 8 7 5 6 5 5 5 7 5 2 5 7 5 4 4 6 9 8 7 6 4 1 4 8 9 11 13 14 15 15 15 16 16 16 17 17 19 13 8 8 9 10 11 11 10 10 10 11 12 12 14 14 14 16 13 14 15 14 14 15 17 16 15 13 12 12 13 13 12 11 11 11 7 2 1 2 3 2 2
11 9 8 8 8 8 6 5 5 7 5 4 5 6 7 6 2 4 5 4 4 5 7 6 6 6 6 5 3 2 8 11 13 13 14 14 15 15 15 15 14 16 16 16 8 9 9 10 10 10 12 12 11 12 11 11 12 12 12 13 15 13 14 15 16 15 16 16 15 15 13 14 13 12 11 12 11 10 7 4 2 2 0 1 1
10 9 9 9 8 8 7 7 7 6 7 7 6 5 7 7 8 2 2 4 4 4 5 5 6 6 5 6 7 8 8 10 12 12 13 14 14 14 14 13 13 15 13 8 6 7 7 8 9 9 10 11 12 12 12 11 12 11 11 12 14 14 13 14 19 15 14 14 14 14 13 13 14 13 11 11 10 9 7 4 1 0 1 2 2
8 10 10 10 10 8 8 7 8 7 5 5 6 7 5 6 6 7 6 1 3 4 4 4 5 5 5 6 8 9 10 11 11 12 13 14 15 15 13 8 11 14 13 7 7 7 7 7 7 7 8 9 10 9 10 11 10 11 12 11 11 11 13 14 14 15 14 14 14 15 14 13 13 12 12 12 10 6 5 3 1 1 1 2 3
6 7 10 9 8 8 7 7 7 7 7 6 6 7 6 5 5 6 6 7 4 1 2 4 6 4 1 4 7 9 9 10 11 12 13 14 15 16 11 6 8 8 7 6 6 7 8 8 8 8 8 9 9 10 11 12 11 12 10 13 12 12 12 14 15 14 14 15 15 14 14 14 13 13 11 11 10 8 5 3 2 1 2 3 3
7 7 8 8 7 6 6 7 7 7 9 9 7 6 6 6 6 5 4 3 3 1 2 3 2 5 6 6 8 9 9 10 10 12 12 14 14 14 8 8 5 6 6 6 6 7 7 7 7 8 8 8 9 9 9 10 10 10 11 11 13 11 12 14 15 14 15 15 16 16 14 12 11 12 11 10 9 7 5 3 0 1 2 3 3
8 7 7 7 6 6 6 6 6 6 5 7 6 6 6 6 6 5 6 5 3 3 5 3 3 5 3 3 5 7 9 9 9 10 11 12 12 7 2 3 4 5 7 6 6 7 7 7 7 8 8 9 9 8 9 9 10 10 11 12 11 12 12 12 14 15 15 14 15 13 14 13 13 11 11 10 9 6 4 1 1 2 3 5 5
6 7 7 7 7 7 7 7 6 7 7 6 5 6 6 6 5 5 6 5 5 4 4 4 3 2 2 4 5 3 5 8 8 7 7 7 7 5 5 4 4 5 5 5 6 6 7 7 7 8 8 8 9 9 9 9 9 9 10 10 11 11 17 16 17 15 15 13 14 13 13 13 12 12 10 9 8 6 4 1 1 3 3 4 3
5 7 10 11 8 7 7 7 7 6 6 6 6 6 7 7 6 6 6 6 4 4 5 4 4 3 3 3 3 5 3 3 5 5 6 5 4 3 3 3 3 4 4 5 6 6 7 8 8 7 8 8 9 9 9 10 10 10 11 11 11 11 12 11 11 12 11 11 12 12 12 11 11 10 10 8 7 5 3 1 1 2 4 3 3
7 7 9 12 7 8 7 7 6 6 6 7 7 6 6 6 6 7 6 7 6 5 6 6 5 4 3 1 3 2 1 2 1 3 4 5 4 4 3 3 4 4 5 5 5 6 7 8 8 8 9 9 8 9 9 10 10 10 10 10 11 13 12 10 11 11 12 11 12 12 12 11 11 10 9 6 5 4 2 2 2 2 3 4 5
7 6 6 8 8 7 6 6 6 7 6 6 6 7 7 7 7 7 6 6 5 4 5 6 6 5 3 4 4 1 2 1 1 2 3 3 4 4 4 3 4 4 5 5 5 6 7 8 8 8 8 8 8 8 9 9 10 10 11 11 11 11 11 11 11 11 11 12 11 12 12 12 11 10 8 6 5 4 3 3 2 3 4 5 6
8 8 9 8 9 7 8 8 7 8 8 7 7 7 7 7 6 7 7 5 6 6 6 6 6 4 5 5 2 2 1 1 1 3 3 2 3 3 3 4 5 4 5 5 5 6 6 7 8 8 8 9 9 9 9 9 10 10 11 11 11 12 11 11 11 11 12 11 10 11 11 10 12 9 7 5 4 3 3 3 3 4 4 5 5
9 9 8 7 8 9 9 9 8 9 8 8 7 6 6 6 6 6 5 6 5 5 5 5 4 3 4 4 2 2 1 2 3 2 2 3 3 3 4 5 6 5 5 5 5 5 6 6 7 7 8 8 9 9 9 10 10 10 10 11 12 12 12 11 12 11 11 11 11 12 13 12 11 8 5 4 3 3 3 3 4 3 4 4 5
9 8 7 8 8 8 6 8 10 10 7 6 6 7 6 6 5 4 6 5 5 5 6 6 4 3 3 3 1 1 2 3 2 3 3 3 2 4 5 6 6 5 6 5 5 5 5 6 7 7 7 8 8 8 8 9 9 9 10 11 11 13 12 12 13 13 13 12 12 13 12 12 10 7 5 4 3 3 3 3 3 3 3 3 4
9 11 11 9 11 11 10 8 9 8 7 6 6 6 6 6 6 5 5 6 6 6 6 5 4 3 3 2 2 2 3 3 3 3 3 3 4 5 5 5 5 6 6 6 5 5 5 6 6 7 8 8 8 8 8 8 8 8 8 10 10 11 12 13 13 13 13 13 12 12 11 11 9 6 4 3 3 3 3 3 2 3 4 3 4
8 9 11 12 11 8 8 8 8 8 7 8 7 6 5 5 6 5 6 6 6 6 6 5 4 4 4 3 3 4 3 2 3 2 4 3 4 5 5 5 6 6 6 6 6 5 6 6 6 7 8 8 9 8 8 8 9 8 9 8 9 9 10 11 12 12 12 12 11 10 11 10 8 6 5 3 3 3 3 3 3 3 3 4 4
12 11 10 10 9 8 8 9 8 8 7 6 5 6 6 6 5 5 7 7 6 7 6 5 4 4 4 4 4 4 4 2 3 3 4 4 4 5 5 5 5 6 6 6 5 6 6 6 6 7 7 8 8 9 9 8 8 8 8 8 8 10 10 11 12 11 11 12 11 9 8 8 7 5 5 3 2 3 3 3 3 4 4 4 4
7 10 7 6 6 8 7 7 9 6 8 7 6 6 6 6 5 6 7 7 7 6 4 4 4 4 5 4 4 4 4 4 3 4 4 5 5 5 5 4 5 6 5 6 6 6 6 6 6 6 7 8 8 8 9 9 9 9 8 7 8 10 14 16 12 11 11 11 11 10 9 8 6 5 4 3 2 2 3 4 4 4 4 4 4
6 7 7 7 7 8 7 8 8 7 7 7 6 6 6 5 6 6 7 7 7 5 5 5 5 4 4 4 4 5 4 5 5 4 5 5 5 5 5 4 5 5 6 6 6 6 6 6 6 7 7 7 7 8 8 9 9 9 10 8 10 20 20 20 14 11 15 11 9 9 8 7 6 5 4 3 3 3 3 3 4 5 4 4 4
7 6 6 6 6 7 4 5 6 7 6 6 7 6 6 6 6 7 7 6 6 5 5 4 5 5 4 4 6 5 4 5 6 6 6 6 5 5 5 5 5 5 5 6 6 6 6 6 7 7 7 7 7 7 7 8 9 10 10 11 20 22 20 22 21 19 14 9 10 8 8 6 5 4 4 3 3 3 3 3 3 4 4 4 4
6 6 5 6 5 4 6 7 6 7 7 8 8 6 6 7 7 7 7 7 7 7 6 5 5 4 4 5 6 5 5 5 6 5 6 6 5 4 5 5 5 4 5 6 6 6 6 6 6 7 7 7 7 7 7 7 8 9 15 21 21 19 20 18 14 18 20 14 8 8 7 7 5 4 3 3 3 3 3 3 3 3 3 3 4
Wind_Direction
111 111 111 106 104 100 100 94 88 88 87 89 94 92 93 96 96 116 100 81 95 85 85 85 85 86 80 69 66 58 63 56 49 76 68 61 45 73 47 68 59 354 299 313 302 303 309 310 305 295 292 294 288 290 285 281 285 275 273 274 271 264 270 278 280 285 293 281 259 286 297 302 294 287 285 287 289 280 280 277 273 271 275 275 276
117 116 105 104 102 100 93 90 93 91 91 87 92 93 94 99 116 97 90 81 86 94 90 91 91 88 83 74 65 49 41 45 32 63 64 52 26 18 18 4 358 330 341 322 319 313 308 307 302 296 289 281 289 288 281 285 277 275 266 263 267 265 249 267 272 282 288 302 300 281 281 276 284 291 293 294 296 298 288 285 283 279 277 274 276
115 113 109 105 102 99 98 94 94 94 95 94 98 98 97 89 83 92 89 86 66 80 92 88 86 86 78 67 57 49 35 33 29 54 58 65 39 356 357 11 345 337 336 324 320 318 321 305 297 296 297 298 290 286 286 280 271 266 268 260 265 265 253 243 266 277 282 287 293 299 296 296 275 292 298 293 286 287 293 292 287 281 273 271 269
119 111 107 102 104 102 99 102 98 103 102 107 104 98 92 85 80 89 92 88 83 64 66 68 66 65 67 51 47 38 27 12 13 31 47 61 35 352 347 352 332 317 307 310 314 321 312 313 301 307 309 302 297 300 294 278 278 276 274 268 262 267 257 253 247 262 278 288 291 293 294 303 295 289 293 292 289 288 284 289 286 279 280 277 265
114 111 113 112 107 107 108 110 111 109 109 105 97 94 89 91 81 92 98 82 72 73 59 56 61 53 49 40 29 23 10 6 10 4 4 22 24 351 340 335 324 309 296 292 297 299 301 292 295 306 311 305 302 304 304 305 296 287 282 281 272 268 266 255 257 257 269 274 283 287 293 287 284 292 293 301 301 293 286 282 283 284 284 277 265
117 119 120 118 116 114 117 115 114 113 109 101 99 97 96 92 96 77 84 90 78 70 72 54 58 51 43 30 24 8 356 354 0 360 358 357 1 343 325 322 317 315 311 304 297 292 286 291 296 301 304 298 296 298 299 296 299 292 285 284 280 276 274 269 262 261 261 268 274 288 287 291 298 290 296 290 289 298 301 295 290 281 279 282 268
125 122 122 120 119 120 120 119 117 114 110 110 107 98 93 93 85 82 75 84 77 65 53 57 37 48 32 28 21 2 352 347 356 3 2 358 354 348 338 332 321 313 301 297 297 294 289 290 295 296 294 292 292 294 299 299 294 287 283 284 284 284 279 277 274 269 266 272 271 265 281 281 282 293 298 298 289 281 290 294 293 295 291 277 283
127 125 125 121 119 121 119 120 115 114 112 106 103 100 95 85 81 80 77 67 63 57 50 46 27 40 25 20 2 3 354 356 357 0 355 348 343 333 328 321 317 312 308 306 303 298 293 291 289 289 285 286 287 290 293 295 297 294 289 278 283 289 288 288 283 275 274 270 268 279 272 279 285 266 286 295 293 289 272 290 294 301 301 296 286
130 129 126 123 125 126 123 116 112 108 105 102 97 93 88 87 85 78 70 66 56 50 45 41 32 22 17 23 7 1 5 350 351 345 343 339 336 327 319 316 311 309 308 306 302 299 295 288 287 287 285 284 285 285 287 287 294 299 300 299 291 286 289 290 288 286 278 274 278 271 278 282 280 290 297 295 297 297 304 297 290 290 292 289 286
135 133 128 129 129 126 120 114 109 103 98 98 99 95 89 83 78 69 61 57 53 42 40 37 43 30 13 7 8 0 353 340 336 344 350 347 335 328 322 315 312 307 309 308 303 298 296 301 295 290 293 294 294 294 291 292 289 283 289 300 301 300 296 296 293 289 284 284 282 288 288 284 287 291 290 288 293 296 293 293 291 294 290 286 278
137 134 131 132 129 126 118 112 106 100 103 102 97 93 86 83 72 65 58 52 48 38 43 38 28 20 19 9 357 351 338 331 339 346 345 346 341 325 315 308 304 304 302 303 307 310 308 301 300 302 299 296 294 291 287 294 298 296 293 289 286 288 297 294 291 294 292 284 283 284 281 283 288 290 287 292 287 285 285 284 289 295 298 301 299
137 133 132 132 129 123 118 114 106 107 103 100 97 91 85 75 68 65 60 48 38 47 44 32 24 15 12 6 354 345 339 332 342 345 347 344 344 338 327 319 312 309 302 307 307 309 314 317 314 300 292 295 304 303 298 294 302 301 297 293 291 286 278 281 289 290 286 288 289 284 288 287 291 290 288 289 295 292 284 282 284 287 291 286 284
136 131 133 128 123 118 119 116 113 109 104 102 97 86 81 74 65 57 53 50 55 54 40 34 20 4 6 2 347 339 336 327 344 346 348 349 352 358 340 330 325 315 318 317 318 320 320 320 321 319 307 308 311 306 308 306 307 305 300 297 295 296 295 293 284 277 286 284 286 288 286 294 291 290 291 291 290 288 287 283 278 271 266 273 277
135 132 128 125 123 122 123 120 114 111 107 96 91 85 79 77 74 67 64 51 54 49 39 31 14 3 354 349 336 325 333 330 347 350 352 351 355 360 333 333 326 320 324 323 324 326 322 323 322 321 324 321 310 313 315 316 318 321 321 318 313 308 306 303 297 288 281 280 283 283 285 284 285 288 291 292 290 284 285 281 285 291 294 289 287
134 134 129 127 125 125 125 120 115 111 102 97 91 83 82 79 66 55 61 57 52 46 37 24 358 356 345 345 339 333 326 339 352 354 353 354 358 357 334 333 332 331 327 324 322 321 320 317 319 318 323 328 329 331 330 325 322 319 317 314 311 308 304 304 300 297 293 285 281 281 286 287 287 289 290 290 289 293 297 300 297 291 288 285 279
134 133 131 136 135 136 131 124 116 112 106 99 94 89 83 78 70 52 58 53 52 53 23 41 16 348 336 342 344 336 333 343 354 356 357 357 359 348 344 341 341 336 332 330 324 322 321 328 332 327 323 322 325 330 330 326 319 316 313 311 308 306 302 302 305 304 299 296 291 288 288 289 286 291 291 291 293 295 294 295 296 294 292 285 281
143 141 138 139 137 137 133 125 119 113 113 104 96 92 87 76 70 66 67 60 61 50 44 21 353 351 341 346 350 345 342 339 354 358 0 358 0 351 347 345 337 333 332 330 330 334 338 337 331 323 320 320 324 328 330 330 320 313 308 305 304 305 305 307 304 306 307 303 301 299 296 299 295 298 294 294 297 298 298 293 289 293 289 285 286
146 142 141 141 135 131 127 124 121 119 111 107 106 101 96 95 91 75 85 63 47 36 26 19 4 354 338 345 354 354 338 333 353 359 1 0 3 357 344 341 330 329 326 325 331 330 330 333 329 324 323 321 325 327 329 330 318 311 305 308 307 305 307 309 308 304 300 299 297 295 294 293 296 293 291 290 289 288 284 284 285 288 286 284 284
150 146 139 132 126 120 121 117 116 117 110 110 111 104 101 100 93 80 78 78 62 46 23 28 359 350 352 351 342 344 330 335 349 2 0 0 1 0 347 339 332 335 334 330 331 332 333 338 338 336 328 323 325 326 326 327 318 313 311 307 308 305 306 308 306 307 311 309 306 305 300 294 290 283 281 284 284 282 275 274 282 284 287 288 287
136 125 124 122 119 115 115 113 110 114 118 116 109 108 115 85 68 66 56 70 61 43 32 22 29 5 357 348 336 326 349 348 345 359 359 1 2 4 346 346 342 337 339 336 331 332 334 330 333 332 328 326 325 324 324 325 321 315 314 310 306 304 309 311 313 311 306 302 298 299 295 293 291 286 281 279 278 272 273 268 272 277 279 283 280
131 129 123 119 116 115 109 112 116 111 115 120 117 103 88 88 79 72 66 59 66 52 41 18 20 347 331 313 337 343 357 354 332 355 360 4 3 4 350 351 341 337 333 331 333 331 332 332 327 329 329 327 326 325 325 324 324 320 316 304 306 314 319 312 309 307 302 301 298 300 297 293 290 287 285 284 280 277 275 271 272 274 276 282 285
128 125 123 119 118 114 115 109 105 113 113 112 109 99 86 87 91 90 85 84 71 54 34 19 344 283 286 292 6 349 338 345 337 349 2 5 3 2 1 351 346 337 331 327 328 327 325 320 319 326 328 328 328 327 327 327 327 325 315 318 318 318 318 315 307 302 299 305 305 301 300 299 295 292 291 291 286 281 281 279 280 284 281 283 285
126 125 123 123 120 118 113 112 110 108 105 107 108 102 98 85 76 79 75 67 64 61 61 234 214 221 255 317 342 347 336 336 352 357 0 3 1 1 358 353 347 344 332 329 329 323 317 315 314 324 327 329 328 328 327 328 328 321 321 321 321 321 320 308 301 299 308 311 305 303 306 303 303 302 300 299 293 286 289 291 296 297 296 294 291
127 125 127 125 122 117 114 107 104 98 106 108 104 110 100 101 91 72 63 66 70 101 209 200 208 115 39 2 358 357 343 339 338 0 3 360 357 358 355 352 347 341 336 326 326 323 321 320 322 326 328 329 328 328 328 328 325 324 324 323 323 322 311 300 299 320 316 304 304 307 309 313 313 311 309 305 299 303 303 296 294 293 289 292 295
133 132 132 131 124 124 111 107 103 98 99 112 120 128 115 105 82 47 66 54 133 203 223 145 67 43 25 12 350 342 339 335 327 348 360 356 357 354 351 346 344 340 333 319 315 315 317 322 324 326 327 328 328 327 324 323 323 324 323 322 321 309 303 303 324 317 305 302 301 308 309 312 313 309 306 303 301 301 294 295 284 273 272 272 279
137 138 136 133 133 130 121 111 98 87 89 75 109 121 109 97 105 88 104 166 203 190 62 62 56 50 36 359 348 331 331 333 328 324 335 351 351 351 347 343 339 337 333 322 321 322 323 325 326 326 327 326 326 324 323 319 322 322 320 317 308 306 316 329 317 310 303 305 313 311 308 306 305 306 301 296 294 297 303 305 311 305 312 310 311
140 142 141 138 136 136 130 127 122 108 99 125 95 80 78 100 110 127 157 185 199 137 72 77 57 50 32 357 340 334 332 331 330 327 335 341 343 339 336 330 333 331 325 314 321 324 328 330 329 327 321 320 319 315 311 311 315 312 314 309 312 327 329 313 301 300 316 322 315 309 307 305 299 298 306 309 307 304 305 298 299 294 312 313 313
149 148 145 143 140 141 133 122 125 123 132 108 103 92 90 116 139 164 172 185 141 97 102 64 59 43 35 356 343 341 337 339 335 346 349 345 343 340 336 329 332 332 328 325 330 333 332 328 326 321 317 314 315 315 314 308 304 313 318 331 329 320 308 303 314 322 313 305 300 302 306 311 309 306 304 305 305 301 303 294 286 292 310 323 310
139 137 139 136 137 120 119 130 137 142 117 100 84 135 138 158 172 206 230 180 165 152 97 67 75 78 78 4 358 338 337 343 340 348 347 349 348 346 343 341 336 337 336 336 336 332 323 324 327 333 335 336 338 336 337 338 337 336 335 334 331 331 330 334 326 318 318 310 311 311 305 304 303 305 304 302 301 301 301 287 275 268 289 241 268
140 144 146 143 138 132 129 129 146 127 122 129 124 100 211 179 185 144 95 119 135 112 109 107 99 104 56 322 305 351 320 322 340 348 350 352 352 351 346 342 342 341 341 347 349 330 333 338 335 334 335 340 341 342 340 340 335 334 333 336 334 330 328 328 324 319 318 318 310 305 305 304 303 304 301 299 298 299 292 266 279 233 250 253 274
145 145 150 156 150 147 141 139 129 118 126 134 140 135 112 44 92 91 85 75 87 93 72 60 42 28 37 345 320 351 343 344 347 352 355 357 357 354 351 351 350 349 351 354 354 351 348 345 342 340 342 340 340 338 335 333 334 331 328 327 324 326 325 324 321 320 318 313 312 307 306 304 301 302 301 300 300 303 310 290 248 242 247 256 224
157 163 158 150 144 146 142 132 126 129 137 144 154 151 145 120 28 32 64 49 87 99 65 41 26 14 5 6 8 316 347 351 352 356 0 2 1 359 1 1 357 358 3 1 356 352 352 346 344 344 341 338 335 336 332 330 328 326 323 319 319 321 322 317 318 316 311 310 312 315 313 313 306 304 303 305 307 306 304 294 253 243 54 40 58
153 153 154 151 148 146 150 149 152 152 153 156 158 156 145 147 140 143 348 21 66 53 32 20 12 1 354 5 5 2 354 353 356 2 6 4 5 7 10 5 5 5 13 8 7 348 347 346 343 339 339 334 330 330 329 327 324 319 316 316 314 314 312 312 315 308 310 310 311 313 315 311 313 312 311 314 318 311 307 286 261 116 110 99 74
161 159 161 159 155 158 159 159 158 162 165 160 151 143 142 141 148 145 139 44 9 12 16 8 357 350 347 4 357 358 355 358 1 6 8 8 10 13 15 7 8 12 18 9 3 353 348 342 337 332 327 324 321 322 321 321 320 317 317 313 308 308 311 312 312 313 315 316 318 316 314 313 316 317 319 318 317 308 299 284 207 182 127 122 125
145 145 149 154 158 159 159 159 159 157 160 158 152 145 146 159 157 149 144 142 140 178 271 305 325 336 0 351 350 354 355 359 7 9 10 11 13 15 11 6 9 1 9 8 6 350 346 339 332 329 328 325 325 328 325 322 322 322 320 318 316 317 316 319 318 317 318 318 315 314 318 318 317 319 318 317 316 313 301 285 266 178 141 119 121
156 157 160 156 151 156 157 157 162 160 157 150 148 141 154 162 160 160 148 141 158 191 278 273 250 301 324 345 347 350 352 1 10 11 13 14 16 18 20 9 359 354 356 352 352 342 333 327 327 323 322 318 320 320 320 317 315 316 317 317 317 316 318 320 321 321 322 317 314 317 319 317 317 318 317 313 308 302 297 293 235 83 113 115 111
165 162 162 161 157 152 150 153 156 156 149 145 140 151 163 163 151 143 144 163 190 210 211 258 317 326 323 295 319 341 348 1 8 9 13 15 19 26 25 0 355 348 348 343 340 331 327 320 321 316 318 318 316 313 313 313 314 311 312 312 309 312 316 319 322 321 318 317 313 311 316 317 317 318 317 312 310 306 312 352 48 93 100 126 124
168 164 159 154 150 148 152 158 164 157 149 143 153 163 165 159 156 154 164 181 188 187 216 244 246 244 279 291 325 314 338 347 352 358 9 13 17 19 14 359 356 345 335 330 330 322 314 314 316 319 316 316 313 315 313 309 311 309 308 310 313 310 316 319 321 319 318 313 313 314 313 316 317 318 316 310 307 307 317 350 82 99 99 118 118
166 160 157 156 157 158 161 159 164 159 154 155 172 169 169 161 158 165 177 181 187 198 205 207 210 214 233 254 299 291 353 347 3 353 347 343 349 350 346 341 338 333 327 325 320 318 312 314 317 316 315 314 313 311 313 312 312 311 311 312 313 315 320 320 318 319 315 312 313 312 313 313 316 316 315 309 309 311 331 9 56 100 120 111 102
166 166 164 162 159 164 164 164 159 157 168 167 178 176 162 164 170 179 178 175 190 196 198 199 211 217 234 213 248 253 63 329 337 321 321 319 325 326 334 333 325 322 319 318 313 311 312 310 315 315 314 311 311 311 312 313 312 311 312 315 317 319 318 316 316 316 316 311 312 312 312 314 315 315 312 317 316 333 358 29 46 89 103 106 97
170 163 165 171 167 161 159 163 167 171 170 180 183 176 176 175 181 180 178 185 188 194 206 210 216 230 218 230 271 307 145 203 258 273 271 287 296 309 310 305 298 301 304 305 307 309 309 310 312 312 310 309 311 312 314 314 313 315 316 317 315 314 314 312 311 310 310 312 309 311 313 315 315 316 320 326 347 9 27 46 74 83 91 96 111
170 170 174 173 169 170 168 177 179 176 175 179 182 179 180 182 183 181 185 187 194 198 207 218 220 214 223 237 240 273 137 188 222 243 259 263 274 282 283 282 276 274 284 290 300 305 308 308 308 310 311 314 314 315 315 315 316 317 317 317 318 317 317 316 316 314 314 313 309 309 311 314 318 320 327 342 6 7 35 41 56 71 90 107 113
181 178 177 170 175 179 181 181 175 167 178 186 186 179 180 182 190 192 193 191 194 203 216 222 225 202 209 229 230 263 149 203 220 236 247 262 265 275 277 275 275 275 275 279 283 287 296 299 302 304 307 308 311 314 316 315 317 317 318 317 319 319 319 319 320 320 321 317 314 314 315 317 320 321 328 345 360 24 42 57 66 78 95 115 120
184 180 176 178 179 178 182 167 162 178 191 184 169 175 179 185 194 199 196 201 203 212 217 226 222 212 211 220 205 183 204 220 222 232 236 253 265 270 272 275 281 286 287 286 286 283 288 294 296 298 298 301 305 307 308 311 313 314 317 319 318 319 321 323 325 325 324 320 317 319 320 318 319 321 330 348 5 39 52 62 73 90 106 112 115
180 171 164 165 170 167 172 171 162 179 180 175 178 181 180 183 200 209 204 207 215 214 217 221 223 221 220 217 211 215 229 223 235 236 256 252 261 262 267 278 280 285 285 287 283 287 289 290 293 296 303 304 308 308 309 309 309 309 313 319 320 322 323 324 322 318 315 316 318 318 317 319 321 325 331 350 16 53 61 69 87 107 101 100 107
169 163 169 166 163 167 177 177 184 187 187 175 173 181 190 190 202 210 218 218 216 215 218 222 220 217 216 225 228 226 240 238 246 241 249 256 257 264 262 266 271 275 276 277 283 286 285 285 290 294 298 302 306 307 308 308 308 308 310 314 317 315 315 316 316 312 315 319 317 314 315 317 319 322 338 0 29 63 78 82 78 80 100 104 96
164 176 185 174 180 174 185 172 177 183 179 175 180 181 190 197 203 216 223 223 222 223 217 219 213 222 222 229 233 245 242 244 249 255 255 254 255 258 262 266 271 277 278 281 282 283 286 287 287 289 293 297 302 305 307 308 306 306 305 309 313 319 320 323 322 318 318 318 315 311 312 311 317 322 337 4 44 75 87 86 86 103 104 104 101
179 167 173 171 173 178 180 176 183 180 175 183 186 188 191 195 206 215 219 227 225 224 227 228 224 228 230 236 237 239 246 245 250 252 257 257 260 258 263 267 272 272 280 283 286 285 287 286 287 289 293 299 302 305 305 308 306 306 303 305 312 321 324 326 324 323 322 320 314 315 316 318 318 331 340 0 40 80 97 98 97 95 104 101 97
171 182 178 180 184 180 180 181 184 184 182 183 183 192 194 198 209 215 220 221 223 227 222 227 236 236 238 245 243 244 247 254 256 258 256 259 257 262 260 265 268 278 278 280 281 288 288 288 289 290 291 294 297 297 302 305 308 306 306 301 316 328 330 333 332 326 328 324 317 318 317 321 329 336 352 7 27 51 82 96 106 115 110 106 106
179 178 179 177 176 185 181 182 175 158 169 174 178 196 196 197 209 216 217 222 227 231 232 229 235 235 236 249 254 255 255 257 257 258 257 258 257 259 262 269 273 274 273 277 283 284 288 287 290 288 292 292 294 294 298 300 304 305 304 310 323 327 331 336 335 334 337 333 326 319 320 322 332 344 355 15 33 65 80 95 107 113 120 127 123
166 170 170 179 172 165 176 178 181 172 165 163 176 199 199 205 213 213 212 214 218 220 219 221 231 241 246 241 248 253 257 256 255 255 255 255 256 258 265 272 275 278 280 280 285 287 286 286 284 287 292 292 296 295 296 296 301 302 306 314 321 325 331 338 336 335 339 341 328 325 323 328 336 348 357 4 41 58 94 99 107 108 119 119 123